sat.trackr.live / text

‹ back to catalog

STARLINK-30226

NORAD 57497 · 2023-113C

PAYLOAD ACTIVE UNKNOWN

§ Identity

Operator
Country
US
Launch date
2023-08-07
Launch site
AFETR
Launch vehicle
Mass (kg)
RCS (m²)

Purposes: comms

External: N2YO · Heavens-Above · Gunter

§ Orbital elements

Epoch: 2026-05-24T20:37:58.598400Z

Period
94.27 min
Inclination
43.0024°
Eccentricity
0.0001515
Mean motion
15.27572745 rev/d
Perigee alt
482.0 km
Apogee alt
484.1 km
Semi-major
6,861.2 km
B*
1.8921e-5
RAAN
305.9812°
Arg perigee
252.4884°
Mean anomaly
107.5802°
Rev number
15,522

§ Raw data

STARLINK-302261 57497U 23113C   26144.85970600  .00000258  00000+0  18921-4 0  99932 57497  43.0024 305.9812 0001515 252.4884 107.5802 15.27572745155223

JSON: /api/v1/satellites/57497 · /tle

For live sub-satellite position, see the globe view (requires WebGL).

§ Visibility from observer

Set your observer location to see the next 7 days of passes ≥ 10°. The values pass through the URL so the page stays shareable.

No JS? Fill the form by hand. The geolocation button needs JavaScript.